Location: Ariel
(45.9570°N, 122.5700°W)
Time: 01:05:19
(UTC-07:00)

Altair - Pass Details

Date: 23 July 2019
Orbit: 1501 x 1683 km, 47.2° (Epoch: 18 August)

Event Time Altitude Azimuth Distance (km) Brightness Sun altitude
Rises 18:43:16 0° 292° (WNW) 4,651 11.5 19.9°
Reaches altitude 10° 18:46:26 10° 286° (WNW) 3,680 11.7 19.4°
Maximum altitude 18:54:58 44° 219° (SW) 2,046 8.7 17.9°
Drops below altitude 10° 19:03:47 10° 152° (SSE) 3,783 9.2 16.4°
Sets 19:07:06 0° 146° (SE) 4,792 9.7 15.8°
